Weather History for KFNT - July, 2013

Change the Weather History Date:

Friday, July 26, 2013

  Actual Average Record
Temperature  
Mean Temperature 71 °F 70 °F  
Max Temperature 81 °F 82 °F 99 °F (1941)
Min Temperature 60 °F 59 °F 48 °F (1977)
Degree Days  
Heating Degree Days 0 0  
Month to date heating degree days 3 10  
Since 1 June heating degree days 44 76  
Since 1 July heating degree days 3 10  
Cooling Degree Days 6 6  
Month to date cooling degree days 261 156  
Year to date cooling degree days 499 300  
Since 1 June cooling degree days 420 268  
Growing Degree Days 20 (Base 50)    
Moisture  
Dew Point 56 °F    
Average Humidity 65    
Maximum Humidity 87    
Minimum Humidity 42    
Precipitation  
Precipitation 0.08 in 0.12 in 1.50 in (2005)
Month to date precipitation 0.80 2.73  
Year to date precipitation 22.07 16.79  
Snow  
Snow 0.00 in 0.00 in 0.00 in ()
Month to date snowfall 0.0 0.0  
Since 1 June snowfall 0.0 0.0  
Since 1 July snowfall 0.0 0.0  
Snow Depth 0.00 in    
Sea Level Pressure  
Sea Level Pressure 30.02 in    
Wind  
Wind Speed 7 mph (South)    
Max Wind Speed 15 mph    
Max Gust Speed 20 mph    
Visibility 10 miles    
Events Rain    
T = Trace of Precipitation, MM = Missing Value Source: NWS Daily Summary

Daily Weather History Graph

Daily Weather History Graph

Search for Another Location

Airport or City:

Trip Planner

Search our weather history database for the weather conditions in past years. The results will help you decide how hot, cold, wet, or windy it might be!

Date:

Astronomy

Jul. 26, 2013 Rise Set
Actual Time 6:20 AM EDT 9:02 PM EDT
Civil Twilight 5:47 AM EDT 9:35 PM EDT
Nautical Twilight 5:05 AM EDT 10:16 PM EDT
Astronomical Twilight 4:18 AM EDT 11:03 PM EDT
Moon 11:06 PM EDT (7/26) 11:03 AM EDT (7/26)
Length of Visible Light 15h 47m
Length of Day
14h 42m
Waning Gibbous, 80% of the Moon is Illuminated
Jul 26
Waning Gibbous
Jul 29
Last Quarter
Aug 6
New
Aug 14
First Quarter
Aug 20
Full

Hourly Weather History & Observations

Time (EDT) Temp. Heat Index Dew Point Humidity Pressure Visibility Wind Dir Wind Speed Gust Speed Precip Events Conditions
12:53 AM 63.0 °F - 55.0 °F 75% 30.09 in 10.0 mi South 6.9 mph - N/A   Clear
1:53 AM 63.0 °F - 54.0 °F 72% 30.08 in 10.0 mi South 4.6 mph - N/A   Clear
2:53 AM 62.1 °F - 55.0 °F 78% 30.07 in 10.0 mi South 6.9 mph - N/A   Clear
3:53 AM 63.0 °F - 55.0 °F 75% 30.06 in 10.0 mi South 5.8 mph - N/A   Clear
4:53 AM 62.1 °F - 54.0 °F 75% 30.06 in 10.0 mi South 4.6 mph - N/A   Clear
5:53 AM 61.0 °F - 54.0 °F 78% 30.08 in 10.0 mi South 4.6 mph - N/A   Clear
6:53 AM 62.1 °F - 53.1 °F 72% 30.07 in 10.0 mi South 4.6 mph - N/A   Clear
7:53 AM 64.9 °F - 54.0 °F 68% 30.07 in 10.0 mi South 6.9 mph - N/A   Clear
8:53 AM 68.0 °F - 55.0 °F 63% 30.07 in 10.0 mi South 6.9 mph - N/A   Clear
9:53 AM 70.0 °F - 55.9 °F 61% 30.06 in 10.0 mi South 5.8 mph - N/A   Clear
10:53 AM 73.9 °F - 57.0 °F 55% 30.06 in 10.0 mi SSW 6.9 mph - N/A   Clear
11:53 AM 73.9 °F - 57.0 °F 55% 30.06 in 10.0 mi South 6.9 mph - N/A   Clear
12:53 PM 75.9 °F - 57.9 °F 54% 30.05 in 10.0 mi SSW 8.1 mph - N/A   Clear
1:53 PM 79.0 °F - 57.0 °F 47% 30.02 in 10.0 mi South 9.2 mph - N/A   Mostly Cloudy
2:53 PM 80.1 °F 80.4 °F 57.0 °F 45% 29.99 in 10.0 mi South 9.2 mph - N/A   Partly Cloudy
3:53 PM 80.1 °F 80.2 °F 55.9 °F 43% 29.97 in 10.0 mi South 9.2 mph 17.3 mph N/A   Partly Cloudy
4:53 PM 80.1 °F 80.2 °F 55.9 °F 43% 29.96 in 10.0 mi SSW 10.4 mph - N/A   Scattered Clouds
5:53 PM 78.1 °F - 55.0 °F 45% 29.95 in 10.0 mi SSW 9.2 mph - N/A   Mostly Cloudy
6:53 PM 75.0 °F - 55.9 °F 51% 29.95 in 10.0 mi SSW 6.9 mph - N/A   Overcast
7:53 PM 73.9 °F - 57.9 °F 57% 29.94 in 10.0 mi SSW 5.8 mph - 0.00 in   Scattered Clouds
8:53 PM 73.0 °F - 57.9 °F 59% 29.94 in 10.0 mi South 4.6 mph - N/A   Overcast
9:53 PM 70.0 °F - 57.0 °F 63% 29.93 in 10.0 mi South 4.6 mph - N/A   Scattered Clouds
10:53 PM 70.0 °F - 59.0 °F 68% 29.92 in 10.0 mi South 4.6 mph - 0.00 in Rain Light Rain
11:53 PM 66.9 °F - 62.1 °F 84% 29.92 in 10.0 mi SSW 4.6 mph - 0.07 in Rain Light Rain